Hourly Data Report for April 18, 2021

KENORA A
ONTARIO
Current Station Operator: NAVCAN

49°47'18.000" N
94°21'47.000" W
409.70 m
6034076
71850
YQK

Download Data

Hourly Data (April 2021)
Hourly Data Report for April 18, 2021
TIME
LST
Temp Definition
°C
Dew Point Definition
°C
Rel Hum Definition
%
Precip. Amount Definition
mm

Wind Dir Definition
10's deg

Wind Spd Definition
km/h
Visibility Definition
km
Stn Press Definition
kPa
Hmdx Definition


Wind Chill Definition


Weather Definition


00:00 6.8 -4.8 43   32 8 24.1 96.39     Mainly Clear
01:00 5.4 -4.5 49   29 9 24.1 96.34     LegendNANA
02:00 5.3 -4.5 49   30 11 24.1 96.28     LegendNANA
03:00 5.5 -4.2 50   33 7 24.1 96.23     Mainly Clear
04:00 4.2 -3.6 57   31 6 24.1 96.20     LegendNANA
05:00 2.5 -3.0 68   35 9 24.1 96.21     LegendNANA
06:00 1.9 -2.8 71   3 14 24.1 96.24     Cloudy
07:00 0.4 -0.5 93   4 15 1.6 96.26     Snow Showers
08:00 -0.1 -0.5 97   2 14 1.0 96.26   -4 Snow Showers
09:00 -0.3 -0.7 98   3 16 1.0 96.26   -5 Snow Showers
10:00 -1.2 -2.2 93   2 19 1.2 96.31   -7 Snow Showers
11:00 -0.9 -1.8 93   2 20 2.4 96.35   -6 Snow Showers, Fog
12:00 -1.1 -2.3 91   36 21 1.6 96.38   -7 Snow Showers, Fog
13:00 -1.9 -4.8 81   35 28 24.1 96.43   -9 Snow Showers
14:00 -1.6 -5.2 77   2 23 32.2 96.50   -8 LegendNANA
15:00 -1.8 -5.0 79   36 19 32.2 96.55   -7 Cloudy
16:00 -2.0 -5.9 75   36 23 32.2 96.59   -8 LegendNANA
17:00 -1.7 -6.1 72   36 21 32.2 96.64   -8 LegendNANA
18:00 -2.0 -6.5 71   36 16 24.1 96.67   -7 Snow
19:00 -2.4 -7.6 68   36 22 24.1 96.70   -9 Snow
20:00 -2.8 -7.8 69   36 18 24.1 96.78   -8 Snow
21:00 -2.8 -8.2 67   35 19 24.1 96.83   -9 Snow
22:00 -3.1 -8.7 66   36 14 24.1 96.86   -8 Snow
23:00 -3.1 -9.3 63   36 23 24.1 96.87   -10 LegendNANA

Notes on Data Quality.

Legend

  • E = Estimated
  • M = Missing
  • NA = Not Available*
  • [empty] = Indicates an unobserved value
Date modified: